When you browse on this site, cookies collect data to enhance your experience and personalize the content and advertising you see.
Visit our Privacy Policy to learn more. By continuing to use the site, you agree to this use of cookies and data.
  • In Romania
  • List of Countries
  • For 7 days
  • Water Temperature
  • Weather Map
  • Weather Widgets
  • user-avatar
    Login

    Hourly Weather Sarajevo

    Today, 29 February, Saturday

    Time Temperature Precipitation Wind Pressure Humidity
    00:00 -6°C° 0 mm 2 mps 689 mmHg 91%
    01:00 -6°C° 0 mm 2 mps 689 mmHg 92%
    02:00 -4°C° 0 mm 1 mps 689 mmHg 91%
    03:00 -6°C° 0 mm 1 mps 689 mmHg 90%
    04:00 -6°C° 0 mm 1 mps 689 mmHg 90%
    05:00 -6°C° 0 mm 1 mps 689 mmHg 87%
    06:00 -6°C° 0 mm 1 mps 689 mmHg 85%
    07:00 -6°C° 0 mm 1 mps 688 mmHg 83%
    08:00 -3°C° 0 mm 1 mps 689 mmHg 80%
    09:00 0°C° 0 mm 1 mps 689 mmHg 77%
    10:00 +2°C° 0 mm 1 mps 689 mmHg 75%
    11:00 +3°C° 0 mm 1 mps 689 mmHg 78%
    12:00 +3°C° 0 mm 1 mps 688 mmHg 82%
    13:00 +3°C° 0 mm 2 mps 688 mmHg 85%
    14:00 +3°C° 0 mm 2 mps 688 mmHg 84%
    15:00 +3°C° 0 mm 2 mps 687 mmHg 83%
    16:00 +3°C° 0 mm 2 mps 687 mmHg 82%
    17:00 +1°C° 0 mm 2 mps 687 mmHg 81%
    18:00 -1°C° 0 mm 2 mps 686 mmHg 80%
    19:00 -2°C° 0 mm 2 mps 686 mmHg 80%
    20:00 -2°C° 0 mm 2 mps 686 mmHg 78%
    21:00 -2°C° 0 mm 2 mps 686 mmHg 77%
    22:00 -2°C° 0 mm 2 mps 686 mmHg 76%
    23:00 -2°C° 0 mm 2 mps 686 mmHg 75%

    Tomorrow, 1 March, Sunday

    Time Temperature Precipitation Wind Pressure Humidity
    00:00 -2°C° 0 mm 2 mps 686 mmHg 73%
    01:00 -2°C° 0 mm 2 mps 686 mmHg 72%
    02:00 -2°C° 0 mm 2 mps 685 mmHg 72%
    03:00 -3°C° 0 mm 2 mps 685 mmHg 71%
    04:00 -3°C° 0 mm 2 mps 685 mmHg 71%
    05:00 -2°C° 0 mm 2 mps 684 mmHg 73%
    06:00 -2°C° 0 mm 3 mps 684 mmHg 75%
    07:00 -2°C° 0 mm 3 mps 684 mmHg 77%
    08:00 0°C° 0 mm 3 mps 684 mmHg 82%
    09:00 +1°C° 0 mm 3 mps 684 mmHg 87%
    10:00 +2°C° 0 mm 3 mps 684 mmHg 92%
    11:00 +2°C° 0 mm 3 mps 684 mmHg 93%
    12:00 +2°C° 0 mm 3 mps 684 mmHg 94%
    13:00 +2°C° 0 mm 3 mps 683 mmHg 95%
    14:00 +2°C° 0.3 mm 3 mps 683 mmHg 96%
    15:00 +2°C° 0.3 mm 3 mps 682 mmHg 97%
    16:00 +2°C° 0.3 mm 3 mps 682 mmHg 98%
    17:00 +3°C° 0.8 mm 3 mps 682 mmHg 98%
    18:00 +3°C° 0.8 mm 3 mps 681 mmHg 98%
    19:00 +3°C° 0.8 mm 3 mps 681 mmHg 99%
    20:00 +4°C° 2 mm 4 mps 681 mmHg 99%
    21:00 +3°C° 2 mm 5 mps 681 mmHg 99%
    22:00 +4°C° 2 mm 6 mps 681 mmHg 99%
    23:00 +4°C° 3.1 mm 6 mps 680 mmHg 99%

    Day after tomorrow, 2 March, Monday

    Time Temperature Precipitation Wind Pressure Humidity
    00:00 +4°C° 3.1 mm 6 mps 680 mmHg 98%
    01:00 +4°C° 3.1 mm 6 mps 679 mmHg 98%
    02:00 +4°C° 2.9 mm 6 mps 679 mmHg 98%
    03:00 +4°C° 2.9 mm 6 mps 679 mmHg 98%
    04:00 +4°C° 2.9 mm 6 mps 678 mmHg 98%
    05:00 +4°C° 1.2 mm 6 mps 679 mmHg 98%
    06:00 +5°C° 1.2 mm 5 mps 679 mmHg 98%
    07:00 +3°C° 1.2 mm 5 mps 679 mmHg 98%
    08:00 +5°C° 0.3 mm 4 mps 679 mmHg 97%
    09:00 +5°C° 0.3 mm 4 mps 680 mmHg 95%
    10:00 +5°C° 0.3 mm 4 mps 680 mmHg 94%
    11:00 +5°C° 0.4 mm 4 mps 680 mmHg 93%
    12:00 +5°C° 0.4 mm 4 mps 680 mmHg 92%
    13:00 +5°C° 0.4 mm 4 mps 680 mmHg 91%
    14:00 +5°C° 0.3 mm 3 mps 680 mmHg 92%
    15:00 +5°C° 0.3 mm 3 mps 680 mmHg 93%
    16:00 +5°C° 0.3 mm 3 mps 680 mmHg 93%
    17:00 +4°C° 0.1 mm 3 mps 680 mmHg 93%
    18:00 +4°C° 0.1 mm 3 mps 680 mmHg 93%
    19:00 +3°C° 0.1 mm 3 mps 680 mmHg 94%
    20:00 +3°C° 0.3 mm 3 mps 679 mmHg 94%
    21:00 +4°C° 0.3 mm 4 mps 679 mmHg 95%
    22:00 +4°C° 0.3 mm 4 mps 679 mmHg 95%
    23:00 +3°C° 0.5 mm 5 mps 679 mmHg 95%

    3 March, Tuesday

    Time Temperature Precipitation Wind Pressure Humidity
    00:00 +3°C° 0.5 mm 5 mps 678 mmHg 95%
    01:00 +4°C° 0.5 mm 6 mps 677 mmHg 95%
    02:00 +4°C° 3.3 mm 6 mps 677 mmHg 96%
    03:00 +4°C° 3.3 mm 6 mps 676 mmHg 96%
    04:00 +5°C° 3.3 mm 5 mps 676 mmHg 97%
    05:00 +5°C° 5.9 mm 5 mps 675 mmHg 97%
    06:00 +5°C° 5.9 mm 6 mps 675 mmHg 97%
    07:00 +5°C° 5.9 mm 6 mps 675 mmHg 97%
    08:00 +5°C° 4.8 mm 6 mps 675 mmHg 97%
    09:00 +5°C° 4.8 mm 6 mps 675 mmHg 96%
    10:00 +5°C° 4.8 mm 6 mps 675 mmHg 96%
    11:00 +5°C° 1.3 mm 6 mps 675 mmHg 96%
    12:00 +7°C° 1.3 mm 5 mps 674 mmHg 97%
    13:00 +7°C° 1.3 mm 4 mps 674 mmHg 97%
    14:00 +6°C° 2.4 mm 4 mps 674 mmHg 97%
    15:00 +6°C° 2.4 mm 4 mps 674 mmHg 97%
    16:00 +7°C° 2.4 mm 3 mps 673 mmHg 98%
    17:00 +7°C° 4.7 mm 3 mps 673 mmHg 98%
    18:00 +6°C° 4.7 mm 2 mps 673 mmHg 98%
    19:00 +6°C° 4.7 mm 2 mps 673 mmHg 98%
    20:00 +5°C° 1.4 mm 2 mps 673 mmHg 97%
    21:00 +5°C° 1.4 mm 2 mps 674 mmHg 97%
    22:00 +5°C° 1.4 mm 2 mps 674 mmHg 97%
    23:00 +5°C° 0.8 mm 2 mps 674 mmHg 97%

    4 March, Wednesday

    Time Temperature Precipitation Wind Pressure Humidity
    00:00 +5°C° 0.8 mm 2 mps 675 mmHg 97%
    01:00 +5°C° 0.8 mm 2 mps 675 mmHg 97%
    02:00 +5°C° 0.2 mm 2 mps 675 mmHg 97%
    03:00 +5°C° 0.2 mm 2 mps 676 mmHg 97%
    04:00 +4°C° 0.2 mm 2 mps 676 mmHg 97%
    05:00 +4°C° 0.1 mm 2 mps 676 mmHg 96%
    06:00 +4°C° 0.1 mm 2 mps 676 mmHg 96%
    07:00 +3°C° 0.1 mm 2 mps 677 mmHg 95%
    08:00 +4°C° 0.1 mm 2 mps 677 mmHg 90%
    09:00 +6°C° 0.1 mm 2 mps 678 mmHg 85%
    10:00 +7°C° 0.1 mm 2 mps 678 mmHg 80%
    11:00 +7°C° 0.4 mm 2 mps 678 mmHg 82%
    12:00 +6°C° 0.4 mm 2 mps 678 mmHg 84%
    13:00 +6°C° 0.4 mm 2 mps 678 mmHg 87%
    14:00 +6°C° 0.2 mm 2 mps 678 mmHg 84%
    15:00 +6°C° 0.2 mm 2 mps 678 mmHg 81%
    16:00 +7°C° 0.2 mm 1 mps 677 mmHg 79%
    17:00 +6°C° 0.1 mm 1 mps 677 mmHg 83%
    18:00 +5°C° 0.1 mm 1 mps 677 mmHg 87%
    19:00 +3°C° 0.1 mm 0 mps 678 mmHg 92%
    20:00 +4°C° 0 mm 1 mps 678 mmHg 92%
    21:00 +4°C° 0 mm 1 mps 678 mmHg 92%
    22:00 +4°C° 0 mm 1 mps 678 mmHg 92%
    23:00 +3°C° 0 mm 1 mps 678 mmHg 92%

    5 March, Thursday

    Time Temperature Precipitation Wind Pressure Humidity
    00:00 +3°C° 0 mm 1 mps 678 mmHg 92%
    01:00 +3°C° 0 mm 1 mps 678 mmHg 92%
    02:00 +3°C° 0 mm 1 mps 678 mmHg 93%
    03:00 +3°C° 0 mm 1 mps 678 mmHg 93%
    04:00 +3°C° 0 mm 1 mps 678 mmHg 93%
    05:00 +3°C° 0 mm 1 mps 678 mmHg 93%
    06:00 +3°C° 0 mm 1 mps 678 mmHg 93%
    07:00 +3°C° 0 mm 1 mps 678 mmHg 92%
    08:00 +5°C° 0 mm 1 mps 679 mmHg 87%
    09:00 +6°C° 0 mm 1 mps 680 mmHg 82%
    10:00 +7°C° 0 mm 1 mps 680 mmHg 77%
    11:00 +8°C° 0 mm 1 mps 680 mmHg 74%
    12:00 +9°C° 0 mm 1 mps 681 mmHg 70%
    13:00 +10°C° 0 mm 1 mps 681 mmHg 67%
    14:00 +9°C° 0.1 mm 1 mps 681 mmHg 67%
    15:00 +9°C° 0.1 mm 1 mps 681 mmHg 67%
    16:00 +9°C° 0.1 mm 1 mps 681 mmHg 68%
    17:00 +7°C° 0 mm 1 mps 681 mmHg 74%
    18:00 +5°C° 0 mm 0 mps 681 mmHg 80%
    19:00 +3°C° 0 mm 0 mps 681 mmHg 86%
    20:00 +4°C° 0 mm 1 mps 681 mmHg 87%
    21:00 +4°C° 0 mm 1 mps 681 mmHg 88%
    22:00 +4°C° 0 mm 1 mps 681 mmHg 89%
    23:00 +4°C° 0 mm 1 mps 681 mmHg 91%
    Show more